timestamp,surface_pressure_avg,surface_temp_avg,battery_voltage,lat,long
2020-08-11 00:09:01+00:00,237.6781,19.4,12.97,47.84626,-54.09684
2020-08-11 00:19:01+00:00,240.7398,19.4,12.81,47.84626,-54.09684
2020-08-11 00:29:01+00:00,244.1915,19.4,12.81,47.84626,-54.09684
2020-08-11 00:39:01+00:00,245.6514,19.4,12.81,47.84626,-54.09684
2020-08-11 00:49:01+00:00,246.0481,19.39,12.81,47.84626,-54.09684
2020-08-11 00:59:01+00:00,247.5881,19.3,12.81,47.84626,-54.09684
2020-08-11 01:09:01+00:00,250.5847,19.2,12.81,47.84626,-54.09684
2020-08-11 01:19:01+00:00,252.9413,19.2,12.73,47.84626,-54.09684
2020-08-11 01:29:01+00:00,254.6998,19.24,12.73,47.84626,-54.09684
2020-08-11 01:39:01+00:00,258.7364,19.27,12.73,47.84626,-54.09684
2020-08-11 01:49:01+00:00,265.6114,19.25,12.73,47.84626,-54.09684
2020-08-11 01:59:01+00:00,270.4414,19.23,12.73,47.84626,-54.09684
2020-08-11 02:09:01+00:00,273.418,19.22,12.73,47.84626,-54.09684
2020-08-11 02:19:01+00:00,278.8397,19.2,12.73,47.84626,-54.09684
2020-08-11 02:29:01+00:00,284.2581,19.19,12.73,47.84626,-54.09684
2020-08-11 02:39:01+00:00,289.0414,19.2,12.73,47.84626,-54.09684
2020-08-11 02:49:01+00:00,295.1564,19.2,12.73,47.84626,-54.09684
2020-08-11 02:59:01+00:00,300.788,19.2,12.73,47.84626,-54.09684
2020-08-11 03:09:01+00:00,303.0547,19.2,12.73,47.84626,-54.09684
2020-08-11 03:19:01+00:00,307.5847,19.2,12.73,47.84626,-54.09684
2020-08-11 03:29:01+00:00,313.2363,19.19,12.73,47.84626,-54.09684
2020-08-11 03:39:01+00:00,314.043,19.17,12.73,47.84626,-54.09684
2020-08-11 03:49:01+00:00,311.7629,19.13,12.73,47.84626,-54.09684
2020-08-11 03:59:01+00:00,314.833,19.1,12.73,47.84626,-54.09684
2020-08-11 04:09:01+00:00,317.2796,19.1,12.73,47.84626,-54.09684
2020-08-11 04:19:01+00:00,313.5297,19.1,12.73,47.84626,-54.09684
2020-08-11 04:29:01+00:00,313.813,19.1,12.73,47.84626,-54.09684
2020-08-11 04:39:01+00:00,319.1397,19.1,12.73,47.84626,-54.09684
2020-08-11 04:49:01+00:00,319.7064,19.1,12.73,47.84626,-54.09684
2020-08-11 04:59:01+00:00,313.6296,19.1,12.73,47.84626,-54.09684
2020-08-11 05:09:01+00:00,314.0714,19.19,12.73,47.84626,-54.09684
2020-08-11 05:19:01+00:00,317.3947,19.2,12.73,47.84626,-54.09684
2020-08-11 05:29:01+00:00,311.3914,19.2,12.73,47.84626,-54.09684
2020-08-11 05:39:01+00:00,303.4414,19.2,12.73,47.84626,-54.09684
2020-08-11 05:49:01+00:00,302.6263,19.2,12.73,47.84626,-54.09684
2020-08-11 05:59:01+00:00,302.178,19.2,12.73,47.84626,-54.09684
2020-08-11 06:09:01+00:00,296.8014,19.2,12.73,47.84626,-54.09684
2020-08-11 06:19:01+00:00,292.9514,19.2,12.73,47.84626,-54.09684
2020-08-11 06:29:01+00:00,290.58799999999997,19.22,12.73,47.84626,-54.09684
2020-08-11 06:39:01+00:00,288.3898,19.28,12.73,47.84626,-54.09684
2020-08-11 06:49:01+00:00,284.7247,19.26,12.73,47.84626,-54.09684
2020-08-11 06:59:01+00:00,280.7498,19.29,12.73,47.84626,-54.09684
2020-08-11 07:09:01+00:00,273.7913,19.3,12.73,47.84626,-54.09684
2020-08-11 07:19:01+00:00,267.1031,19.38,12.73,47.84626,-54.09684
2020-08-11 07:29:01+00:00,259.6681,19.4,12.73,47.84626,-54.09684
2020-08-11 07:39:01+00:00,252.1547,19.4,12.73,47.84626,-54.09684
2020-08-11 07:49:01+00:00,245.7898,19.4,12.73,47.84626,-54.09684
2020-08-11 07:59:01+00:00,240.6414,19.43,12.73,47.84626,-54.09684
2020-08-11 08:09:01+00:00,236.5014,19.48,12.73,47.84626,-54.09684
2020-08-11 08:19:01+00:00,232.4181,19.5,12.65,47.84626,-54.09684
2020-08-11 08:29:01+00:00,228.4048,19.56,12.65,47.84626,-54.09684
2020-08-11 08:39:01+00:00,224.3648,19.5,12.65,47.84626,-54.09684
2020-08-11 08:49:01+00:00,219.4964,19.58,12.65,47.84626,-54.09684
2020-08-11 08:59:01+00:00,214.7847,19.63,12.65,47.84626,-54.09684
2020-08-11 09:09:01+00:00,211.9764,19.66,12.65,47.84626,-54.09684
2020-08-11 09:19:01+00:00,207.8398,19.66,12.65,47.84626,-54.09684
2020-08-11 09:29:01+00:00,204.2264,19.7,12.65,47.84626,-54.09684
2020-08-11 09:39:01+00:00,202.5965,19.7,12.65,47.84626,-54.09684
2020-08-11 09:49:01+00:00,201.6398,19.7,12.65,47.84626,-54.09684
2020-08-11 09:59:01+00:00,200.8931,19.7,12.65,47.84626,-54.09684
2020-08-11 10:09:01+00:00,202.8098,19.7,12.65,47.84626,-54.09684
2020-08-11 10:19:01+00:00,205.4298,19.7,12.65,47.84626,-54.09684
2020-08-11 10:29:01+00:00,206.4498,19.7,12.65,47.84626,-54.09684
2020-08-11 10:39:01+00:00,207.3397,19.7,12.65,47.84626,-54.09684
2020-08-11 10:49:01+00:00,211.2764,19.7,12.65,47.84626,-54.09684
2020-08-11 10:59:01+00:00,215.6797,19.7,12.65,47.84626,-54.09684
2020-08-11 11:09:01+00:00,217.6814,19.71,12.65,47.84626,-54.09684
2020-08-11 11:19:01+00:00,219.9232,19.7,12.81,47.84626,-54.09684
2020-08-11 11:29:01+00:00,222.9431,19.7,12.81,47.84626,-54.09684
2020-08-11 11:39:01+00:00,224.9365,19.7,12.81,47.84626,-54.09684
2020-08-11 11:49:01+00:00,226.1281,19.69,12.81,47.84626,-54.09684
2020-08-11 11:59:01+00:00,229.3297,19.68,12.81,47.84626,-54.09684
2020-08-11 12:09:01+00:00,230.8415,19.69,12.81,47.84626,-54.09684
2020-08-11 12:19:01+00:00,232.2931,19.69,13.21,47.84626,-54.09684
2020-08-11 12:29:01+00:00,235.3331,19.68,13.21,47.84626,-54.09684
2020-08-11 12:39:01+00:00,239.0281,19.66,13.21,47.84626,-54.09684
2020-08-11 12:49:01+00:00,240.5681,19.64,13.21,47.84626,-54.09684
2020-08-11 12:59:01+00:00,243.1031,19.68,13.21,47.84626,-54.09684
2020-08-11 13:09:01+00:00,246.4698,19.69,13.21,47.84626,-54.09684
2020-08-11 13:19:01+00:00,247.9214,19.6,13.37,47.84626,-54.09684
2020-08-11 13:29:01+00:00,248.5331,19.6,13.37,47.84626,-54.09684
2020-08-11 13:39:01+00:00,251.4114,19.6,13.37,47.84626,-54.09684
2020-08-11 13:49:01+00:00,253.4848,19.6,13.37,47.84626,-54.09684
2020-08-11 13:59:01+00:00,255.5197,19.6,13.37,47.84626,-54.09684
2020-08-11 14:09:01+00:00,259.3247,19.6,13.37,47.84626,-54.09684
2020-08-11 14:19:01+00:00,267.5247,19.6,14.16,47.84626,-54.09684
2020-08-11 14:29:01+00:00,273.4714,19.4,14.16,47.84626,-54.09684
2020-08-11 14:39:01+00:00,278.8264,19.4,14.16,47.84626,-54.09684
2020-08-11 14:49:01+00:00,283.3597,19.39,14.16,47.84626,-54.09684
2020-08-11 14:59:01+00:00,289.7214,19.3,14.16,47.84626,-54.09684
2020-08-11 15:09:01+00:00,293.5048,19.3,14.16,47.84626,-54.09684
2020-08-11 15:19:01+00:00,297.6964,19.3,14.24,47.84626,-54.09684
2020-08-11 15:29:01+00:00,301.6914,19.2,14.24,47.84626,-54.09684
2020-08-11 15:39:01+00:00,303.2697,19.2,14.24,47.84626,-54.09684
2020-08-11 15:49:01+00:00,302.7097,19.21,14.24,47.84626,-54.09684
2020-08-11 15:59:01+00:00,303.858,19.29,14.24,47.84626,-54.09684
2020-08-11 16:09:01+00:00,308.0397,19.28,14.24,47.84626,-54.09684
2020-08-11 16:19:01+00:00,312.0863,19.2,14.32,47.84626,-54.09684
2020-08-11 16:29:01+00:00,312.968,19.2,14.32,47.84626,-54.09684
2020-08-11 16:39:01+00:00,313.8447,19.2,14.32,47.84626,-54.09684
2020-08-11 16:49:01+00:00,317.2047,19.2,14.32,47.84626,-54.09684
2020-08-11 16:59:01+00:00,317.5563,19.19,14.32,47.84626,-54.09684
2020-08-11 17:09:01+00:00,316.4913,19.2,14.32,47.84626,-54.09684
2020-08-11 17:19:01+00:00,317.2764,19.2,14.16,47.84626,-54.09684
2020-08-11 17:29:01+00:00,318.7863,19.2,14.16,47.84626,-54.09684
2020-08-11 17:39:01+00:00,317.038,19.2,14.16,47.84626,-54.09684
2020-08-11 17:49:01+00:00,313.168,19.2,14.16,47.84626,-54.09684
2020-08-11 17:59:01+00:00,311.2331,19.2,14.16,47.84626,-54.09684
2020-08-11 18:09:01+00:00,310.4246,19.2,14.16,47.84626,-54.09684
2020-08-11 18:19:01+00:00,308.823,19.29,13.92,47.84626,-54.09684
2020-08-11 18:29:01+00:00,305.818,19.31,13.92,47.84626,-54.09684
2020-08-11 18:39:01+00:00,302.7698,19.3,13.92,47.84626,-54.09684
2020-08-11 18:49:01+00:00,301.2014,19.25,13.92,47.84626,-54.09684
2020-08-11 18:59:01+00:00,296.4031,19.26,13.92,47.84626,-54.09684
2020-08-11 19:09:01+00:00,290.1647,19.24,13.92,47.84626,-54.09684
2020-08-11 19:19:01+00:00,284.3647,19.2,13.76,47.84626,-54.09684
2020-08-11 19:29:01+00:00,281.0948,19.18,13.76,47.84626,-54.09684
2020-08-11 19:39:01+00:00,275.6547,19.19,13.76,47.84626,-54.09684
2020-08-11 19:49:01+00:00,270.3764,19.3,13.76,47.84626,-54.09684
2020-08-11 19:59:01+00:00,267.0614,19.4,13.76,47.84626,-54.09684
2020-08-11 20:09:01+00:00,264.2331,19.41,13.76,47.84626,-54.09684
2020-08-11 20:19:01+00:00,259.3597,19.46,13.6,47.84626,-54.09684
2020-08-11 20:29:01+00:00,253.9598,19.49,13.6,47.84626,-54.09684
2020-08-11 20:39:01+00:00,248.9314,19.49,13.6,47.84626,-54.09684
2020-08-11 20:49:01+00:00,244.5698,19.48,13.6,47.84626,-54.09684
2020-08-11 20:59:01+00:00,240.2331,19.49,13.6,47.84626,-54.09684
2020-08-11 21:09:01+00:00,236.0614,19.47,13.6,47.84626,-54.09684
2020-08-11 21:19:01+00:00,231.4114,19.45,13.44,47.84626,-54.09684
2020-08-11 21:29:01+00:00,228.5981,19.4,13.44,47.84626,-54.09684
2020-08-11 21:39:01+00:00,226.2614,19.4,13.44,47.84626,-54.09684
2020-08-11 21:49:01+00:00,223.6665,19.4,13.44,47.84626,-54.09684
2020-08-11 21:59:01+00:00,221.1848,19.46,13.44,47.84626,-54.09684
2020-08-11 22:09:01+00:00,218.7531,19.49,13.44,47.84626,-54.09684
2020-08-11 22:19:01+00:00,216.8531,19.5,13.13,47.84626,-54.09684
2020-08-11 22:29:01+00:00,215.3815,19.54,13.13,47.84626,-54.09684
2020-08-11 22:39:01+00:00,215.1697,19.59,13.13,47.84626,-54.09684
2020-08-11 22:49:01+00:00,217.9148,19.6,13.13,47.84626,-54.09684
2020-08-11 22:59:01+00:00,218.7614,19.6,13.13,47.84626,-54.09684
2020-08-11 23:09:01+00:00,218.2581,19.7,13.13,47.84626,-54.09684
2020-08-11 23:19:01+00:00,220.6297,19.72,12.81,47.84626,-54.09684
2020-08-11 23:29:01+00:00,224.0131,19.79,12.81,47.84626,-54.09684
2020-08-11 23:39:01+00:00,223.6814,19.8,12.81,47.84626,-54.09684
2020-08-11 23:49:01+00:00,223.4981,19.8,12.81,47.84626,-54.09684
2020-08-11 23:59:01+00:00,227.1264,19.8,12.81,47.84626,-54.09684
